Location: Hamayl? Da??
(36.7028°N, 30.1716°E)
Time: 15:39:05
(UTC+00:00)

Cosmos 1934 Rocket - Pass Details

Date: 04 August 2024
Orbit: 937 x 998 km, 83.0° (Epoch: 12 September)

Event Time Altitude Azimuth Distance (km) Brightness Sun altitude
Exits shadow 19:01:46 19° 187° (S) 2,101 5.4 -21.1°
Maximum altitude 19:06:20 87° 275° (W) 963 3.9 -21.7°
Drops below altitude 10° 19:12:28 10° 6° (N) 2,674 6.8 -22.6°
Sets 19:14:57 0° 7° (N) 3,617 7.5 -23.0°
